Find Starlink 4499

NORAD ID: 53402 Int'l Des: 2022-097 Owner: SPXS Country: US Constellation: starlink operational
LEOCIRCULAR

实时位置

正在加载3D地球...

关于 Starlink 4499

正在加载描述...

即将过境

Passes for default location (London). Set your location on the main map for personalized predictions.

高度历史

Loading altitude history...

两行轨道根数

1 53402U 22097Q 26121.52412399 .00000736 00000-0 64344-4 0 9992
2 53402 53.2173 246.9386 0001277 91.7712 268.3426 15.08837826206499
Epoch: May 1, 2026 • Age: 4 hours

当前状态

高度 541.5 km
速度 7.60 km/s
星下点 34.16°N, 69.04°W
发射日期 Aug 10, 2022
运行时间 3.7 years
类型 internet

技术详情

分类 Payload
质量 297.00 kg
干质量 275.00 kg
总质量 297.00 kg
长度 0.20 m
直径 2.80 m
跨度 9.00 m
形状 Box + pan
制造商 SPXS
平台类型 Starlink
阶段状态 In Orbit
所有者/国家 SPXS/US

Most Searched